Simultaneous Nadir Overpasses (SNOs) Predictions

Prediction of SNOs between GOES-17 and METOP-B Satellite Orbit:

Table of predicted SNOs for the next 14.0 days since TLE Epoch: 6/12/2021
Index Date Time (GOES-17) GOES-17 Lat,Lon METOP-B Lat,Lon Distance(km) Time Diff (sec)
1 06/13/2021 06:52:04 -0.03,-137.20 -0.77,-140.63 390.46 80
2 06/14/2021 06:34:05 -0.03,-137.20 0.31,-135.63 178.23 80
3 06/15/2021 18:50:17 0.03,-137.19 0.71,-140.19 342.43 80
4 06/16/2021 18:32:19 0.03,-137.18 -0.43,-135.20 225.99 80
5 06/18/2021 06:48:40 -0.02,-137.17 -0.58,-139.80 299.05 80
6 06/19/2021 06:30:40 -0.02,-137.16 0.50,-134.80 269.05 80
7 06/20/2021 18:46:53 0.02,-137.14 0.52,-139.36 252.73 80
8 06/21/2021 18:28:54 0.02,-137.13 -0.62,-134.37 314.83 80
9 06/23/2021 06:45:15 -0.02,-137.10 -0.45,-138.96 211.68 80
10 06/24/2021 06:27:16 -0.01,-137.09 0.70,-133.97 355.21 80
11 06/25/2021 18:43:28 0.01,-137.05 0.33,-138.53 168.37 80
